Time,TemperatureF,DewpointF,PressureIn,WindDirection,WindDirectionDegrees,WindSpeedMPH,WindSpeedGustMPH,Humidity,HourlyPrecipIn,Conditions,Clouds,dailyrainin,SoftwareType,DateUTC
2013-12-05 00:02:00,-1.4,-11.6,30.47,SSW,197,2.0,9.0,61,0.00,,---,0.00,VWS V13.00,2013-12-05 07:02:00,
2013-12-05 00:07:00,-1.5,-11.7,30.46,WSW,258,0.0,5.0,61,0.00,,---,0.00,VWS V13.00,2013-12-05 07:07:00,
2013-12-05 00:12:00,-1.5,-11.7,30.47,SSW,200,0.0,5.0,61,0.00,,---,0.00,VWS V13.00,2013-12-05 07:12:00,
2013-12-05 00:17:00,-1.6,-11.8,30.47,SSE,162,1.0,5.0,61,0.00,,---,0.00,VWS V13.00,2013-12-05 07:17:00,
2013-12-05 00:22:00,-1.7,-11.5,30.46,South,184,0.0,3.0,62,0.00,,---,0.00,VWS V13.00,2013-12-05 07:22:00,
2013-12-05 00:27:00,-1.8,-11.6,30.46,South,187,0.0,6.0,62,0.00,,---,0.00,VWS V13.00,2013-12-05 07:27:00,
2013-12-05 00:32:00,-1.9,-11.7,30.46,SSW,207,4.0,11.0,62,0.00,,---,0.00,VWS V13.00,2013-12-05 07:32:00,
2013-12-05 00:37:00,-1.8,-11.6,30.46,ESE,121,6.0,9.0,62,0.00,,---,0.00,VWS V13.00,2013-12-05 07:37:00,
2013-12-05 00:42:00,-1.8,-11.6,30.46,SSW,199,0.0,9.0,62,0.00,,---,0.00,VWS V13.00,2013-12-05 07:42:00,
2013-12-05 00:47:00,-1.8,-11.6,30.45,West,279,0.0,10.0,62,0.00,,---,0.00,VWS V13.00,2013-12-05 07:47:00,
2013-12-05 00:52:00,-1.7,-11.5,30.46,West,263,0.0,6.0,62,0.00,,---,0.00,VWS V13.00,2013-12-05 07:52:00,
2013-12-05 00:57:00,-1.7,-11.5,30.46,SSE,163,0.0,6.0,62,0.00,,---,0.00,VWS V13.00,2013-12-05 07:57:00,
2013-12-05 01:02:00,-1.7,-11.5,30.46,SSE,164,0.0,6.0,62,0.00,,---,0.00,VWS V13.00,2013-12-05 08:02:00,
2013-12-05 01:07:00,-1.8,-11.6,30.46,SSE,164,0.0,3.0,62,0.00,,---,0.00,VWS V13.00,2013-12-05 08:07:00,
2013-12-05 01:12:00,-1.7,-11.5,30.46,SE,134,2.0,8.0,62,0.00,,---,0.00,VWS V13.00,2013-12-05 08:12:00,
2013-12-05 01:17:00,-1.6,-11.4,30.46,West,261,3.0,8.0,62,0.00,,---,0.00,VWS V13.00,2013-12-05 08:17:00,
2013-12-05 01:22:00,-1.6,-11.4,30.46,South,176,0.0,11.0,62,0.00,,---,0.00,VWS V13.00,2013-12-05 08:22:00,
2013-12-05 01:27:00,-1.4,-11.2,30.44,West,262,4.0,11.0,62,0.00,,---,0.00,VWS V13.00,2013-12-05 08:27:00,
2013-12-05 01:32:00,-1.4,-11.6,30.45,SSW,199,1.0,11.0,61,0.00,,---,0.00,VWS V13.00,2013-12-05 08:32:00,
2013-12-05 01:37:00,-1.4,-11.2,30.45,WSW,248,1.0,4.0,62,0.00,,---,0.00,VWS V13.00,2013-12-05 08:37:00,
2013-12-05 01:42:00,-1.3,-11.5,30.46,NNW,329,1.0,12.0,61,0.00,,---,0.00,VWS V13.00,2013-12-05 08:42:00,
2013-12-05 01:47:00,-1.2,-11.4,30.46,SSW,192,2.0,12.0,61,0.00,,---,0.00,VWS V13.00,2013-12-05 08:47:00,
2013-12-05 01:52:00,-1.1,-11.3,30.47,SSE,168,0.0,11.0,61,0.00,,---,0.00,VWS V13.00,2013-12-05 08:52:00,
2013-12-05 01:57:00,-1.0,-11.5,30.47,WSW,243,1.0,11.0,60,0.00,,---,0.00,VWS V13.00,2013-12-05 08:57:00,
2013-12-05 02:02:00,-0.9,-11.4,30.47,SSW,205,0.0,11.0,60,0.00,,---,0.00,VWS V13.00,2013-12-05 09:02:00,
2013-12-05 02:07:00,-0.9,-11.4,30.49,SSE,156,0.0,6.0,60,0.00,,---,0.00,VWS V13.00,2013-12-05 09:07:00,
2013-12-05 02:12:00,-1.0,-11.5,30.49,SE,140,0.0,10.0,60,0.00,,---,0.00,VWS V13.00,2013-12-05 09:12:00,
2013-12-05 02:17:00,-1.1,-11.6,30.49,South,179,0.0,10.0,60,0.00,,---,0.00,VWS V13.00,2013-12-05 09:17:00,
2013-12-05 02:22:00,-1.2,-11.4,30.49,South,182,0.0,3.0,61,0.00,,---,0.00,VWS V13.00,2013-12-05 09:22:00,
2013-12-05 02:27:00,-1.3,-11.5,30.49,South,182,0.0,3.0,61,0.00,,---,0.00,VWS V13.00,2013-12-05 09:27:00,
2013-12-05 02:32:00,-1.4,-11.6,30.49,ESE,102,0.0,3.0,61,0.00,,---,0.00,VWS V13.00,2013-12-05 09:32:00,
2013-12-05 02:37:00,-1.6,-11.4,30.50,ESE,102,0.0,0.0,62,0.00,,---,0.00,VWS V13.00,2013-12-05 09:37:00,
2013-12-05 02:42:00,-2.2,-11.7,30.50,ESE,102,0.0,0.0,63,0.00,,---,0.00,VWS V13.00,2013-12-05 09:42:00,
2013-12-05 02:47:00,-2.7,-11.9,30.50,ESE,102,0.0,0.0,64,0.00,,---,0.00,VWS V13.00,2013-12-05 09:47:00,
2013-12-05 02:52:00,-3.2,-12.0,30.50,ESE,102,0.0,0.0,65,0.00,,---,0.00,VWS V13.00,2013-12-05 09:52:00,
2013-12-05 02:57:00,-3.7,-12.2,30.51,ESE,102,0.0,0.0,66,0.00,,---,0.00,VWS V13.00,2013-12-05 09:57:00,
2013-12-05 03:02:00,-4.1,-12.6,30.50,ESE,102,0.0,0.0,66,0.00,,---,0.00,VWS V13.00,2013-12-05 10:02:00,
2013-12-05 03:07:00,-4.5,-12.7,30.50,ESE,102,0.0,0.0,67,0.00,,---,0.00,VWS V13.00,2013-12-05 10:07:00,
2013-12-05 03:12:00,-4.9,-12.7,30.51,ESE,102,0.0,0.0,68,0.00,,---,0.00,VWS V13.00,2013-12-05 10:12:00,
2013-12-05 03:17:00,-5.2,-12.7,30.51,ESE,102,0.0,0.0,69,0.00,,---,0.00,VWS V13.00,2013-12-05 10:17:00,
2013-12-05 03:22:00,-5.5,-13.0,30.52,ESE,102,0.0,0.0,69,0.00,,---,0.00,VWS V13.00,2013-12-05 10:22:00,
2013-12-05 03:27:00,-5.8,-13.0,30.52,ESE,102,0.0,0.0,70,0.00,,---,0.00,VWS V13.00,2013-12-05 10:27:00,
2013-12-05 03:32:00,-6.1,-13.3,30.52,ESE,102,0.0,0.0,70,0.00,,---,0.00,VWS V13.00,2013-12-05 10:32:00,
2013-12-05 03:37:00,-6.2,-13.1,30.52,ESE,102,0.0,0.0,71,0.00,,---,0.00,VWS V13.00,2013-12-05 10:37:00,
2013-12-05 03:42:00,-6.4,-13.1,30.52,ESE,102,0.0,0.0,72,0.00,,---,0.00,VWS V13.00,2013-12-05 10:42:00,
2013-12-05 03:47:00,-6.5,-13.1,30.52,ESE,102,0.0,0.0,72,0.00,,---,0.00,VWS V13.00,2013-12-05 10:47:00,
2013-12-05 03:52:00,-6.7,-13.3,30.52,ESE,102,0.0,0.0,72,0.00,,---,0.00,VWS V13.00,2013-12-05 10:52:00,
2013-12-05 03:57:00,-7.0,-13.6,30.52,ESE,102,0.0,0.0,72,0.00,,---,0.00,VWS V13.00,2013-12-05 10:57:00,
2013-12-05 04:02:00,-7.3,-13.9,30.52,ESE,102,0.0,0.0,72,0.00,,---,0.00,VWS V13.00,2013-12-05 11:02:00,
2013-12-05 04:07:00,-7.6,-13.9,30.54,ESE,102,0.0,0.0,73,0.00,,---,0.00,VWS V13.00,2013-12-05 11:07:00,
2013-12-05 04:12:00,-7.7,-14.0,30.54,ESE,102,0.0,0.0,73,0.00,,---,0.00,VWS V13.00,2013-12-05 11:12:00,
2013-12-05 04:17:00,-7.9,-14.0,30.54,ESE,102,0.0,0.0,74,0.00,,---,0.00,VWS V13.00,2013-12-05 11:17:00,
2013-12-05 04:22:00,-8.0,-14.1,30.55,ESE,102,0.0,0.0,74,0.00,,---,0.00,VWS V13.00,2013-12-05 11:22:00,
2013-12-05 04:27:00,-8.1,-14.1,30.55,ESE,102,0.0,0.0,74,0.00,,---,0.00,VWS V13.00,2013-12-05 11:27:00,
2013-12-05 04:32:00,-8.3,-14.4,30.55,ESE,102,0.0,0.0,74,0.00,,---,0.00,VWS V13.00,2013-12-05 11:32:00,
2013-12-05 04:37:00,-8.5,-14.5,30.55,ESE,102,0.0,0.0,74,0.00,,---,0.00,VWS V13.00,2013-12-05 11:37:00,
2013-12-05 04:42:00,-8.7,-14.7,30.55,ESE,102,0.0,0.0,74,0.00,,---,0.00,VWS V13.00,2013-12-05 11:42:00,
2013-12-05 04:47:00,-8.8,-14.6,30.55,ESE,102,0.0,0.0,75,0.00,,---,0.00,VWS V13.00,2013-12-05 11:47:00,
2013-12-05 04:52:00,-8.7,-14.2,30.55,ESE,102,0.0,0.0,76,0.00,,---,0.00,VWS V13.00,2013-12-05 11:52:00,
2013-12-05 04:57:00,-8.8,-14.6,30.55,ESE,102,0.0,0.0,75,0.00,,---,0.00,VWS V13.00,2013-12-05 11:57:00,
2013-12-05 05:02:00,-8.8,-14.6,30.55,ESE,102,0.0,0.0,75,0.00,,---,0.00,VWS V13.00,2013-12-05 12:02:00,
2013-12-05 05:07:00,-8.7,-14.5,30.55,ESE,102,0.0,1.0,75,0.00,,---,0.00,VWS V13.00,2013-12-05 12:07:00,
2013-12-05 05:12:00,-8.8,-14.6,30.56,ESE,102,0.0,1.0,75,0.00,,---,0.00,VWS V13.00,2013-12-05 12:12:00,
2013-12-05 05:17:00,-8.8,-14.6,30.56,ESE,102,0.0,1.0,75,0.00,,---,0.00,VWS V13.00,2013-12-05 12:17:00,
2013-12-05 05:22:00,-8.8,-14.6,30.56,ESE,102,0.0,0.0,75,0.00,,---,0.00,VWS V13.00,2013-12-05 12:22:00,
2013-12-05 05:27:00,-8.9,-14.7,30.56,ESE,102,0.0,0.0,75,0.00,,---,0.00,VWS V13.00,2013-12-05 12:27:00,
2013-12-05 05:32:00,-9.0,-14.8,30.56,ESE,102,0.0,0.0,75,0.00,,---,0.00,VWS V13.00,2013-12-05 12:32:00,
2013-12-05 05:37:00,-9.0,-14.5,30.56,ESE,102,0.0,0.0,76,0.00,,---,0.00,VWS V13.00,2013-12-05 12:37:00,
2013-12-05 05:42:00,-9.0,-14.5,30.56,ESE,102,0.0,0.0,76,0.00,,---,0.00,VWS V13.00,2013-12-05 12:42:00,
2013-12-05 05:47:00,-9.0,-14.5,30.56,ESE,102,0.0,0.0,76,0.00,,---,0.00,VWS V13.00,2013-12-05 12:47:00,
2013-12-05 05:52:00,-9.0,-14.5,30.55,ESE,102,0.0,0.0,76,0.00,,---,0.00,VWS V13.00,2013-12-05 12:52:00,
2013-12-05 05:57:00,-9.0,-14.5,30.55,ESE,102,0.0,0.0,76,0.00,,---,0.00,VWS V13.00,2013-12-05 12:57:00,
2013-12-05 06:02:00,-9.1,-14.6,30.56,ESE,102,0.0,0.0,76,0.00,,---,0.00,VWS V13.00,2013-12-05 13:02:00,
2013-12-05 06:07:00,-9.1,-14.6,30.57,ESE,102,0.0,0.0,76,0.00,,---,0.00,VWS V13.00,2013-12-05 13:07:00,
2013-12-05 06:12:00,-9.1,-14.6,30.57,ESE,102,0.0,0.0,76,0.00,,---,0.00,VWS V13.00,2013-12-05 13:12:00,
2013-12-05 06:17:00,-9.1,-14.6,30.58,ESE,102,0.0,0.0,76,0.00,,---,0.00,VWS V13.00,2013-12-05 13:17:00,
2013-12-05 06:22:00,-9.2,-15.0,30.58,ESE,102,0.0,0.0,75,0.00,,---,0.00,VWS V13.00,2013-12-05 13:22:00,
2013-12-05 06:27:00,-9.3,-15.1,30.58,ESE,102,0.0,0.0,75,0.00,,---,0.00,VWS V13.00,2013-12-05 13:27:00,
2013-12-05 06:32:00,-9.5,-15.2,30.58,ESE,102,0.0,0.0,75,0.00,,---,0.00,VWS V13.00,2013-12-05 13:32:00,
2013-12-05 06:37:00,-9.6,-15.4,30.58,ESE,102,0.0,0.0,75,0.00,,---,0.00,VWS V13.00,2013-12-05 13:37:00,
2013-12-05 06:42:00,-9.8,-15.5,30.58,ESE,102,0.0,0.0,75,0.00,,---,0.00,VWS V13.00,2013-12-05 13:42:00,
2013-12-05 06:47:00,-9.8,-15.5,30.59,ESE,102,0.0,0.0,75,0.00,,---,0.00,VWS V13.00,2013-12-05 13:47:00,
2013-12-05 06:52:00,-10.0,-15.7,30.59,ESE,102,0.0,0.0,75,0.00,,---,0.00,VWS V13.00,2013-12-05 13:52:00,
2013-12-05 06:56:00,-10.2,-15.9,30.59,ESE,102,0.0,0.0,75,0.00,,---,0.00,VWS V13.00,2013-12-05 13:56:00,
2013-12-05 07:02:00,-10.4,-16.1,30.59,ESE,102,0.0,0.0,75,0.00,,---,0.00,VWS V13.00,2013-12-05 14:02:00,
2013-12-05 07:06:00,-10.5,-16.2,30.60,ESE,102,0.0,0.0,75,0.00,,---,0.00,VWS V13.00,2013-12-05 14:06:00,
2013-12-05 07:11:00,-10.6,-16.3,30.60,ESE,102,0.0,0.0,75,0.00,,---,0.00,VWS V13.00,2013-12-05 14:11:00,
2013-12-05 07:17:00,-10.8,-16.5,30.60,ESE,102,0.0,0.0,75,0.00,,---,0.00,VWS V13.00,2013-12-05 14:17:00,
2013-12-05 07:22:00,-10.8,-16.5,30.60,ESE,102,0.0,0.0,75,0.00,,---,0.00,VWS V13.00,2013-12-05 14:22:00,
2013-12-05 07:27:00,-10.7,-16.1,30.60,ESE,102,0.0,0.0,76,0.00,,---,0.00,VWS V13.00,2013-12-05 14:27:00,
2013-12-05 07:32:00,-10.7,-16.1,30.60,ESE,102,0.0,0.0,76,0.00,,---,0.00,VWS V13.00,2013-12-05 14:32:00,
2013-12-05 07:37:00,-10.7,-16.1,30.61,ESE,102,0.0,0.0,76,0.00,,---,0.00,VWS V13.00,2013-12-05 14:37:00,
2013-12-05 07:41:00,-10.4,-15.9,30.61,ESE,102,0.0,2.0,76,0.00,,---,0.00,VWS V13.00,2013-12-05 14:41:00,
2013-12-05 07:46:00,-9.7,-15.2,30.60,ESE,102,0.0,2.0,76,0.00,,---,0.00,VWS V13.00,2013-12-05 14:46:00,
2013-12-05 07:51:00,-9.2,-15.0,30.59,South,187,5.0,5.0,75,0.00,,---,0.00,VWS V13.00,2013-12-05 14:51:00,
2013-12-05 07:56:00,-7.6,-13.7,30.60,South,187,0.0,6.0,74,0.00,,---,0.00,VWS V13.00,2013-12-05 14:56:00,
2013-12-05 08:02:00,-7.2,-13.6,30.58,South,187,0.0,6.0,73,0.00,,---,0.00,VWS V13.00,2013-12-05 15:02:00,
2013-12-05 08:07:00,-6.4,-13.1,30.59,South,188,0.0,4.0,72,0.00,,---,0.00,VWS V13.00,2013-12-05 15:07:00,
2013-12-05 08:12:00,-4.7,-12.0,30.58,SSW,203,1.0,4.0,70,0.00,,---,0.00,VWS V13.00,2013-12-05 15:12:00,
2013-12-05 08:17:00,-3.6,-12.1,30.58,SSE,161,1.0,4.0,66,0.00,,---,0.00,VWS V13.00,2013-12-05 15:17:00,
2013-12-05 08:22:00,-2.7,-11.9,30.57,West,273,0.0,4.0,64,0.00,,---,0.00,VWS V13.00,2013-12-05 15:22:00,
2013-12-05 08:27:00,-2.1,-11.9,30.58,SSW,192,1.0,10.0,62,0.00,,---,0.00,VWS V13.00,2013-12-05 15:27:00,
2013-12-05 08:32:00,-1.7,-11.9,30.58,SSW,193,1.0,10.0,61,0.00,,---,0.00,VWS V13.00,2013-12-05 15:32:00,
2013-12-05 08:37:00,-1.6,-12.1,30.58,South,176,2.0,5.0,60,0.00,,---,0.00,VWS V13.00,2013-12-05 15:37:00,
2013-12-05 08:42:00,-1.5,-12.0,30.58,South,176,0.0,5.0,60,0.00,,---,0.00,VWS V13.00,2013-12-05 15:42:00,
2013-12-05 08:47:00,-1.3,-12.1,30.58,South,176,0.0,5.0,59,0.00,,---,0.00,VWS V13.00,2013-12-05 15:47:00,
2013-12-05 08:52:00,-1.1,-12.3,30.58,South,176,2.0,2.0,58,0.00,,---,0.00,VWS V13.00,2013-12-05 15:52:00,
2013-12-05 08:57:00,-0.9,-12.1,30.58,SSE,149,0.0,3.0,58,0.00,,---,0.00,VWS V13.00,2013-12-05 15:57:00,
2013-12-05 09:02:00,-0.9,-12.5,30.58,ENE,78,0.0,3.0,57,0.00,,---,0.00,VWS V13.00,2013-12-05 16:02:00,
2013-12-05 09:07:00,-0.7,-11.9,30.59,North,355,0.0,2.0,58,0.00,,---,0.00,VWS V13.00,2013-12-05 16:07:00,
2013-12-05 09:12:00,-0.4,-11.6,30.58,SSW,207,4.0,5.0,58,0.00,,---,0.00,VWS V13.00,2013-12-05 16:12:00,
2013-12-05 09:17:00,-0.4,-12.0,30.59,South,176,0.0,6.0,57,0.00,,---,0.00,VWS V13.00,2013-12-05 16:17:00,
2013-12-05 09:22:00,-0.2,-11.4,30.58,South,176,0.0,3.0,58,0.00,,---,0.00,VWS V13.00,2013-12-05 16:22:00,
2013-12-05 09:27:00,-0.1,-12.1,30.58,South,177,3.0,6.0,56,0.00,,---,0.00,VWS V13.00,2013-12-05 16:27:00,
2013-12-05 09:32:00,0.1,-11.5,30.58,SE,133,0.0,6.0,57,0.00,,---,0.00,VWS V13.00,2013-12-05 16:32:00,
2013-12-05 09:37:00,0.5,-11.5,30.58,SSE,163,2.0,3.0,56,0.00,,---,0.00,VWS V13.00,2013-12-05 16:37:00,
2013-12-05 09:42:00,0.8,-11.6,30.59,SW,214,1.0,5.0,55,0.00,,---,0.00,VWS V13.00,2013-12-05 16:42:00,
2013-12-05 09:47:00,1.0,-11.8,30.59,South,181,1.0,5.0,54,0.00,,---,0.00,VWS V13.00,2013-12-05 16:47:00,
2013-12-05 09:52:00,1.2,-11.6,30.58,South,181,0.0,3.0,54,0.00,,---,0.00,VWS V13.00,2013-12-05 16:52:00,
2013-12-05 09:57:00,1.3,-11.5,30.59,South,180,0.0,3.0,54,0.00,,---,0.00,VWS V13.00,2013-12-05 16:57:00,
2013-12-05 10:02:00,1.7,-11.1,30.59,SW,229,0.0,4.0,54,0.00,,---,0.00,VWS V13.00,2013-12-05 17:02:00,
2013-12-05 10:07:00,2.0,-11.2,30.59,SW,229,1.0,3.0,53,0.00,,---,0.00,VWS V13.00,2013-12-05 17:07:00,
2013-12-05 10:12:00,2.2,-11.4,30.59,SE,131,0.0,5.0,52,0.00,,---,0.00,VWS V13.00,2013-12-05 17:12:00,
2013-12-05 10:17:00,2.3,-10.9,30.59,SE,141,0.0,5.0,53,0.00,,---,0.00,VWS V13.00,2013-12-05 17:17:00,
2013-12-05 10:22:00,2.5,-10.7,30.57,SE,144,1.0,4.0,53,0.00,,---,0.00,VWS V13.00,2013-12-05 17:22:00,
2013-12-05 10:26:00,2.6,-11.0,30.58,ESE,114,0.0,4.0,52,0.00,,---,0.00,VWS V13.00,2013-12-05 17:26:00,
2013-12-05 10:31:00,3.2,-10.4,30.57,SSE,148,2.0,4.0,52,0.00,,---,0.00,VWS V13.00,2013-12-05 17:31:00,
2013-12-05 10:37:00,3.7,-10.4,30.57,SE,128,1.0,3.0,51,0.00,,---,0.00,VWS V13.00,2013-12-05 17:37:00,
2013-12-05 10:41:00,4.7,-8.7,30.55,ESE,107,0.0,3.0,53,0.00,,---,0.00,VWS V13.00,2013-12-05 17:41:00,
2013-12-05 10:46:00,5.8,-9.2,30.55,ESE,108,0.0,3.0,49,0.00,,---,0.00,VWS V13.00,2013-12-05 17:46:00,
2013-12-05 10:51:00,6.5,-8.2,30.55,ESE,108,0.0,0.0,50,0.00,,---,0.00,VWS V13.00,2013-12-05 17:51:00,
2013-12-05 10:56:00,6.8,-9.1,30.53,SSW,192,0.0,5.0,47,0.00,,---,0.00,VWS V13.00,2013-12-05 17:56:00,
2013-12-05 11:01:00,6.6,-9.3,30.53,WSW,248,2.0,6.0,47,0.00,,---,0.00,VWS V13.00,2013-12-05 18:01:00,
2013-12-05 11:06:00,6.6,-10.2,30.53,SSW,198,4.0,5.0,45,0.00,,---,0.00,VWS V13.00,2013-12-05 18:06:00,
2013-12-05 11:11:00,6.5,-10.3,30.53,North,360,3.0,7.0,45,0.00,,---,0.00,VWS V13.00,2013-12-05 18:11:00,
2013-12-05 11:16:00,6.4,-10.4,30.54,SSW,210,5.0,7.0,45,0.00,,---,0.00,VWS V13.00,2013-12-05 18:16:00,
2013-12-05 11:21:00,6.5,-9.9,30.54,SW,233,2.0,5.0,46,0.00,,---,0.00,VWS V13.00,2013-12-05 18:21:00,
2013-12-05 11:26:00,6.8,-9.1,30.53,SW,228,0.0,5.0,47,0.00,,---,0.00,VWS V13.00,2013-12-05 18:26:00,
2013-12-05 11:31:00,6.9,-9.5,30.53,SSW,203,2.0,11.0,46,0.00,,---,0.00,VWS V13.00,2013-12-05 18:31:00,
2013-12-05 11:36:00,7.1,-9.3,30.53,SSE,147,1.0,8.0,46,0.00,,---,0.00,VWS V13.00,2013-12-05 18:36:00,
2013-12-05 11:41:00,7.2,-9.2,30.53,WSW,239,2.0,8.0,46,0.00,,---,0.00,VWS V13.00,2013-12-05 18:41:00,
2013-12-05 11:46:00,6.1,-7.3,30.54,NE,48,0.0,8.0,53,0.00,,---,0.00,VWS V13.00,2013-12-05 18:46:00,
2013-12-05 11:51:00,5.5,-7.9,30.53,NNE,22,3.0,5.0,53,0.00,,---,0.00,VWS V13.00,2013-12-05 18:51:00,
2013-12-05 11:56:00,5.3,-6.6,30.53,North,349,0.0,5.0,57,0.00,,---,0.00,VWS V13.00,2013-12-05 18:56:00,
2013-12-05 12:01:00,5.4,-6.2,30.53,NNE,13,0.0,5.0,58,0.00,,---,0.00,VWS V13.00,2013-12-05 19:01:00,
2013-12-05 12:06:00,5.6,-6.7,30.53,ESE,105,1.0,4.0,56,0.00,,---,0.00,VWS V13.00,2013-12-05 19:06:00,
2013-12-05 12:11:00,5.8,-6.5,30.53,East,80,1.0,4.0,56,0.00,,---,0.00,VWS V13.00,2013-12-05 19:11:00,
2013-12-05 12:16:00,5.3,-7.0,30.54,East,88,1.0,4.0,56,0.00,,---,0.00,VWS V13.00,2013-12-05 19:16:00,
2013-12-05 12:21:00,4.9,-7.0,30.54,ENE,78,2.0,3.0,57,0.00,,---,0.00,VWS V13.00,2013-12-05 19:21:00,
2013-12-05 12:26:00,5.1,-6.8,30.54,ENE,78,0.0,3.0,57,0.00,,---,0.00,VWS V13.00,2013-12-05 19:26:00,
2013-12-05 12:31:00,5.3,-6.6,30.54,ENE,78,1.0,3.0,57,0.00,,---,0.00,VWS V13.00,2013-12-05 19:31:00,
2013-12-05 12:36:00,4.8,-6.4,30.53,NNW,346,1.0,4.0,59,0.00,,---,0.00,VWS V13.00,2013-12-05 19:36:00,
2013-12-05 12:41:00,4.8,-6.0,30.53,North,360,0.0,4.0,60,0.00,,---,0.00,VWS V13.00,2013-12-05 19:41:00,
2013-12-05 12:46:00,5.7,-5.5,30.52,East,100,1.0,4.0,59,0.00,,---,0.00,VWS V13.00,2013-12-05 19:46:00,
2013-12-05 12:51:00,5.9,-6.4,30.52,SE,128,3.0,5.0,56,0.00,,---,0.00,VWS V13.00,2013-12-05 19:51:00,
2013-12-05 12:56:00,5.7,-6.2,30.51,SE,142,0.0,5.0,57,0.00,,---,0.00,VWS V13.00,2013-12-05 19:56:00,
2013-12-05 13:01:00,5.8,-6.1,30.51,SE,138,1.0,5.0,57,0.00,,---,0.00,VWS V13.00,2013-12-05 20:01:00,
2013-12-05 13:06:00,6.0,-5.6,30.50,SE,138,0.0,2.0,58,0.00,,---,0.00,VWS V13.00,2013-12-05 20:06:00,
2013-12-05 13:11:00,6.7,-4.9,30.50,ESE,109,0.0,2.0,58,0.00,,---,0.00,VWS V13.00,2013-12-05 20:11:00,
2013-12-05 13:16:00,7.1,-4.9,30.49,ESE,109,1.0,3.0,57,0.00,,---,0.00,VWS V13.00,2013-12-05 20:16:00,
2013-12-05 13:21:00,6.9,-5.1,30.49,ESE,109,2.0,2.0,57,0.00,,---,0.00,VWS V13.00,2013-12-05 20:21:00,
2013-12-05 13:26:00,6.3,-6.0,30.50,South,191,5.0,6.0,56,0.00,,---,0.00,VWS V13.00,2013-12-05 20:26:00,
2013-12-05 13:31:00,5.8,-5.8,30.50,NE,53,2.0,6.0,58,0.00,,---,0.00,VWS V13.00,2013-12-05 20:31:00,
2013-12-05 13:36:00,6.0,-5.9,30.51,East,82,1.0,4.0,57,0.00,,---,0.00,VWS V13.00,2013-12-05 20:36:00,
2013-12-05 13:41:00,6.0,-5.9,30.51,East,92,2.0,4.0,57,0.00,,---,0.00,VWS V13.00,2013-12-05 20:41:00,
2013-12-05 13:46:00,5.5,-6.1,30.50,NNE,19,0.0,4.0,58,0.00,,---,0.00,VWS V13.00,2013-12-05 20:46:00,
2013-12-05 13:51:00,5.4,-6.2,30.51,ESE,110,2.0,4.0,58,0.00,,---,0.00,VWS V13.00,2013-12-05 20:51:00,
2013-12-05 13:56:00,4.4,-7.1,30.51,SE,134,1.0,5.0,58,0.00,,---,0.00,VWS V13.00,2013-12-05 20:56:00,
2013-12-05 14:01:00,4.5,-6.0,30.51,North,9,0.0,5.0,61,0.00,,---,0.00,VWS V13.00,2013-12-05 21:01:00,
2013-12-05 14:06:00,4.5,-6.3,30.53,NE,53,2.0,4.0,60,0.00,,---,0.00,VWS V13.00,2013-12-05 21:06:00,
2013-12-05 14:12:00,4.0,-6.4,30.54,SE,142,1.0,5.0,61,0.00,,---,0.00,VWS V13.00,2013-12-05 21:12:00,
2013-12-05 14:17:00,3.3,-7.1,30.54,SE,143,0.0,5.0,61,0.00,,---,0.00,VWS V13.00,2013-12-05 21:17:00,
2013-12-05 14:22:00,2.5,-7.2,30.54,SE,142,0.0,2.0,63,0.00,,---,0.00,VWS V13.00,2013-12-05 21:22:00,
2013-12-05 14:27:00,1.7,-7.3,30.55,East,83,0.0,3.0,65,0.00,,---,0.00,VWS V13.00,2013-12-05 21:27:00,
2013-12-05 14:32:00,1.3,-7.7,30.56,East,83,0.0,3.0,65,0.00,,---,0.00,VWS V13.00,2013-12-05 21:32:00,
2013-12-05 14:37:00,1.1,-7.6,30.56,ESE,121,0.0,1.0,66,0.00,,---,0.00,VWS V13.00,2013-12-05 21:37:00,
2013-12-05 14:42:00,0.8,-7.6,30.56,East,83,1.0,3.0,67,0.00,,---,0.00,VWS V13.00,2013-12-05 21:42:00,
2013-12-05 14:47:00,0.4,-8.0,30.57,East,84,0.0,3.0,67,0.00,,---,0.00,VWS V13.00,2013-12-05 21:47:00,
2013-12-05 14:52:00,0.1,-7.9,30.58,ENE,72,0.0,2.0,68,0.00,,---,0.00,VWS V13.00,2013-12-05 21:52:00,
2013-12-05 14:57:00,-0.1,-7.8,30.58,ENE,72,0.0,2.0,69,0.00,,---,0.00,VWS V13.00,2013-12-05 21:57:00,
2013-12-05 15:02:00,-0.3,-8.0,30.58,ENE,73,0.0,2.0,69,0.00,,---,0.00,VWS V13.00,2013-12-05 22:02:00,
2013-12-05 15:07:00,-0.3,-7.7,30.60,ENE,73,0.0,1.0,70,0.00,,---,0.00,VWS V13.00,2013-12-05 22:07:00,
2013-12-05 15:12:00,-0.5,-7.6,30.61,ENE,73,0.0,1.0,71,0.00,,---,0.00,VWS V13.00,2013-12-05 22:12:00,
2013-12-05 15:17:00,-0.7,-7.8,30.61,ENE,73,0.0,1.0,71,0.00,,---,0.00,VWS V13.00,2013-12-05 22:17:00,
2013-12-05 15:22:00,-0.8,-7.9,30.62,ENE,72,0.0,0.0,71,0.00,,---,0.00,VWS V13.00,2013-12-05 22:22:00,
2013-12-05 15:27:00,-1.0,-8.1,30.62,ENE,72,0.0,0.0,71,0.00,,---,0.00,VWS V13.00,2013-12-05 22:27:00,
2013-12-05 15:32:00,-1.1,-8.2,30.62,ENE,73,0.0,0.0,71,0.00,,---,0.00,VWS V13.00,2013-12-05 22:32:00,
2013-12-05 15:37:00,-1.3,-8.4,30.62,ENE,73,0.0,0.0,71,0.00,,---,0.00,VWS V13.00,2013-12-05 22:37:00,
2013-12-05 15:42:00,-1.3,-8.4,30.62,ENE,72,0.0,0.0,71,0.00,,---,0.00,VWS V13.00,2013-12-05 22:42:00,
2013-12-05 15:47:00,-1.5,-8.3,30.63,ENE,73,0.0,0.0,72,0.00,,---,0.00,VWS V13.00,2013-12-05 22:47:00,
2013-12-05 15:52:00,-1.7,-8.5,30.63,ENE,72,0.0,0.0,72,0.00,,---,0.00,VWS V13.00,2013-12-05 22:52:00,
2013-12-05 15:57:00,-1.9,-8.7,30.63,ENE,72,0.0,0.0,72,0.00,,---,0.00,VWS V13.00,2013-12-05 22:57:00,
2013-12-05 16:02:00,-2.2,-9.0,30.63,ENE,73,0.0,0.0,72,0.00,,---,0.00,VWS V13.00,2013-12-05 23:02:00,
2013-12-05 16:07:00,-2.5,-9.0,30.65,ENE,73,0.0,0.0,73,0.00,,---,0.00,VWS V13.00,2013-12-05 23:07:00,
2013-12-05 16:12:00,-2.8,-9.3,30.65,ENE,72,0.0,0.0,73,0.00,,---,0.00,VWS V13.00,2013-12-05 23:12:00,
2013-12-05 16:17:00,-3.2,-9.4,30.66,ENE,73,0.0,0.0,74,0.00,,---,0.00,VWS V13.00,2013-12-05 23:17:00,
2013-12-05 16:22:00,-3.7,-9.9,30.66,ENE,72,0.0,1.0,74,0.00,,---,0.00,VWS V13.00,2013-12-05 23:22:00,
2013-12-05 16:27:00,-4.0,-10.2,30.66,ENE,73,0.0,1.0,74,0.00,,---,0.00,VWS V13.00,2013-12-05 23:27:00,
2013-12-05 16:31:00,-4.4,-10.3,30.66,ENE,73,0.0,1.0,75,0.00,,---,0.00,VWS V13.00,2013-12-05 23:31:00,
2013-12-05 16:36:00,-4.6,-10.5,30.67,ENE,73,0.0,0.0,75,0.00,,---,0.00,VWS V13.00,2013-12-05 23:36:00,
2013-12-05 16:41:00,-4.9,-10.8,30.67,ENE,72,0.0,0.0,75,0.00,,---,0.00,VWS V13.00,2013-12-05 23:41:00,
2013-12-05 16:46:00,-5.4,-11.3,30.67,ENE,73,0.0,0.0,75,0.00,,---,0.00,VWS V13.00,2013-12-05 23:46:00,
2013-12-05 16:51:00,-5.5,-11.1,30.68,ENE,73,0.0,0.0,76,0.00,,---,0.00,VWS V13.00,2013-12-05 23:51:00,
2013-12-05 16:56:00,-5.8,-11.4,30.68,ENE,73,0.0,0.0,76,0.00,,---,0.00,VWS V13.00,2013-12-05 23:56:00,
2013-12-05 17:01:00,-5.9,-11.5,30.68,ENE,72,0.0,0.0,76,0.00,,---,0.00,VWS V13.00,2013-12-06 00:01:00,
2013-12-05 17:06:00,-6.2,-11.8,30.69,ENE,72,0.0,0.0,76,0.00,,---,0.00,VWS V13.00,2013-12-06 00:06:00,
2013-12-05 17:11:00,-6.5,-12.1,30.69,ENE,73,0.0,0.0,76,0.00,,---,0.00,VWS V13.00,2013-12-06 00:11:00,
2013-12-05 17:16:00,-6.7,-12.3,30.71,ENE,73,0.0,0.0,76,0.00,,---,0.00,VWS V13.00,2013-12-06 00:16:00,
2013-12-05 17:21:00,-7.0,-12.6,30.70,ENE,73,0.0,0.0,76,0.00,,---,0.00,VWS V13.00,2013-12-06 00:21:00,
2013-12-05 17:26:00,-7.3,-12.9,30.71,ENE,73,0.0,0.0,76,0.00,,---,0.00,VWS V13.00,2013-12-06 00:26:00,
2013-12-05 17:31:00,-7.3,-12.6,30.71,ENE,72,0.0,0.0,77,0.00,,---,0.00,VWS V13.00,2013-12-06 00:31:00,
2013-12-05 17:36:00,-7.4,-12.9,30.71,ENE,72,0.0,0.0,76,0.00,,---,0.00,VWS V13.00,2013-12-06 00:36:00,
2013-12-05 17:41:00,-7.6,-13.1,30.71,ENE,73,0.0,0.0,76,0.00,,---,0.00,VWS V13.00,2013-12-06 00:41:00,
2013-12-05 17:46:00,-7.7,-13.2,30.71,ENE,73,0.0,0.0,76,0.00,,---,0.00,VWS V13.00,2013-12-06 00:46:00,
2013-12-05 17:51:00,-7.8,-13.3,30.71,ENE,73,0.0,0.0,76,0.00,,---,0.00,VWS V13.00,2013-12-06 00:51:00,
2013-12-05 17:56:00,-7.9,-13.4,30.71,ENE,73,0.0,0.0,76,0.00,,---,0.00,VWS V13.00,2013-12-06 00:56:00,
2013-12-05 18:01:00,-8.1,-13.6,30.71,ENE,73,0.0,0.0,76,0.00,,---,0.00,VWS V13.00,2013-12-06 01:01:00,
2013-12-05 18:06:00,-8.2,-13.7,30.73,ENE,73,0.0,0.0,76,0.00,,---,0.00,VWS V13.00,2013-12-06 01:06:00,
2013-12-05 18:11:00,-8.3,-13.8,30.73,ENE,73,0.0,0.0,76,0.00,,---,0.00,VWS V13.00,2013-12-06 01:11:00,
2013-12-05 18:16:00,-8.5,-14.3,30.74,ENE,72,0.0,0.0,75,0.00,,---,0.00,VWS V13.00,2013-12-06 01:16:00,
2013-12-05 18:21:00,-8.7,-14.5,30.74,ENE,72,0.0,0.0,75,0.00,,---,0.00,VWS V13.00,2013-12-06 01:21:00,
2013-12-05 18:26:00,-8.8,-14.6,30.73,ENE,73,0.0,0.0,75,0.00,,---,0.00,VWS V13.00,2013-12-06 01:26:00,
2013-12-05 18:31:00,-9.0,-14.8,30.73,ENE,73,0.0,0.0,75,0.00,,---,0.00,VWS V13.00,2013-12-06 01:31:00,
2013-12-05 18:36:00,-9.1,-14.9,30.74,ENE,72,0.0,0.0,75,0.00,,---,0.00,VWS V13.00,2013-12-06 01:36:00,
2013-12-05 18:41:00,-9.4,-15.1,30.74,ENE,72,0.0,0.0,75,0.00,,---,0.00,VWS V13.00,2013-12-06 01:41:00,
2013-12-05 18:46:00,-9.4,-12.2,30.74,ENE,73,0.0,0.0,87,0.00,,---,0.00,VWS V13.00,2013-12-06 01:46:00,
2013-12-05 18:51:00,-9.4,-15.1,30.74,ENE,72,0.0,0.0,75,0.00,,---,0.00,VWS V13.00,2013-12-06 01:51:00,
2013-12-05 18:56:00,-9.5,-15.2,30.75,ENE,73,0.0,0.0,75,0.00,,---,0.00,VWS V13.00,2013-12-06 01:56:00,
2013-12-05 19:01:00,-9.6,-15.4,30.75,ENE,73,0.0,0.0,75,0.00,,---,0.00,VWS V13.00,2013-12-06 02:01:00,
2013-12-05 19:06:00,-9.8,-15.5,30.73,ENE,72,0.0,0.0,75,0.00,,---,0.00,VWS V13.00,2013-12-06 02:06:00,
2013-12-05 19:11:00,-9.8,-15.5,30.73,ENE,73,0.0,0.0,75,0.00,,---,0.00,VWS V13.00,2013-12-06 02:11:00,
2013-12-05 19:16:00,-10.0,-15.7,30.74,ENE,73,0.0,0.0,75,0.00,,---,0.00,VWS V13.00,2013-12-06 02:16:00,
2013-12-05 19:21:00,-10.1,-15.8,30.73,ENE,72,0.0,1.0,75,0.00,,---,0.00,VWS V13.00,2013-12-06 02:21:00,
2013-12-05 19:26:00,-10.2,-15.9,30.73,ENE,73,0.0,1.0,75,0.00,,---,0.00,VWS V13.00,2013-12-06 02:26:00,
2013-12-05 19:31:00,-10.3,-16.0,30.74,ENE,73,0.0,1.0,75,0.00,,---,0.00,VWS V13.00,2013-12-06 02:31:00,
2013-12-05 19:36:00,-10.3,-16.0,30.74,ENE,73,0.0,0.0,75,0.00,,---,0.00,VWS V13.00,2013-12-06 02:36:00,
2013-12-05 19:41:00,-10.4,-16.1,30.74,ENE,72,0.0,0.0,75,0.00,,---,0.00,VWS V13.00,2013-12-06 02:41:00,
2013-12-05 19:46:00,-10.4,-16.1,30.74,ENE,72,0.0,0.0,75,0.00,,---,0.00,VWS V13.00,2013-12-06 02:46:00,
2013-12-05 19:51:00,-10.5,-16.2,30.76,ENE,73,0.0,0.0,75,0.00,,---,0.00,VWS V13.00,2013-12-06 02:51:00,
2013-12-05 19:56:00,-10.6,-16.3,30.76,ENE,72,0.0,0.0,75,0.00,,---,0.00,VWS V13.00,2013-12-06 02:56:00,
2013-12-05 20:01:00,-10.7,-16.4,30.76,ENE,73,0.0,0.0,75,0.00,,---,0.00,VWS V13.00,2013-12-06 03:01:00,
2013-12-05 20:06:00,-10.8,-16.5,30.72,ENE,73,0.0,0.0,75,0.00,,---,0.00,VWS V13.00,2013-12-06 03:06:00,
2013-12-05 20:11:00,-10.9,-16.6,30.72,ENE,72,0.0,0.0,75,0.00,,---,0.00,VWS V13.00,2013-12-06 03:11:00,
2013-12-05 20:16:00,-11.2,-16.9,30.73,ENE,72,0.0,0.0,75,0.00,,---,0.00,VWS V13.00,2013-12-06 03:16:00,
2013-12-05 20:21:00,-11.3,-17.0,30.73,ENE,73,0.0,0.0,75,0.00,,---,0.00,VWS V13.00,2013-12-06 03:21:00,
2013-12-05 20:26:00,-11.5,-17.5,30.73,ENE,73,0.0,0.0,74,0.00,,---,0.00,VWS V13.00,2013-12-06 03:26:00,
2013-12-05 20:31:00,-11.6,-17.3,30.73,ENE,72,0.0,0.0,75,0.00,,---,0.00,VWS V13.00,2013-12-06 03:31:00,
2013-12-05 20:36:00,-11.7,-17.6,30.73,ENE,72,0.0,0.0,74,0.00,,---,0.00,VWS V13.00,2013-12-06 03:36:00,
2013-12-05 20:41:00,-11.8,-17.5,30.73,ENE,73,0.0,0.0,75,0.00,,---,0.00,VWS V13.00,2013-12-06 03:41:00,
2013-12-05 20:46:00,-11.9,-17.6,30.74,ENE,73,0.0,0.0,75,0.00,,---,0.00,VWS V13.00,2013-12-06 03:46:00,
2013-12-05 20:51:00,-12.1,-18.0,30.73,ENE,73,0.0,1.0,74,0.00,,---,0.00,VWS V13.00,2013-12-06 03:51:00,
2013-12-05 20:56:00,-12.2,-17.9,30.73,ENE,73,0.0,1.0,75,0.00,,---,0.00,VWS V13.00,2013-12-06 03:56:00,
2013-12-05 21:01:00,-12.2,-17.9,30.74,ENE,72,0.0,1.0,75,0.00,,---,0.00,VWS V13.00,2013-12-06 04:01:00,
2013-12-05 21:06:00,-12.2,-17.9,30.72,ENE,73,0.0,0.0,75,0.00,,---,0.00,VWS V13.00,2013-12-06 04:06:00,
2013-12-05 21:11:00,-12.1,-17.8,30.72,ENE,73,0.0,0.0,75,0.00,,---,0.00,VWS V13.00,2013-12-06 04:11:00,
2013-12-05 21:16:00,-12.2,-17.9,30.73,ENE,73,0.0,0.0,75,0.00,,---,0.00,VWS V13.00,2013-12-06 04:16:00,
2013-12-05 21:21:00,-12.4,-18.1,30.73,ENE,73,0.0,0.0,75,0.00,,---,0.00,VWS V13.00,2013-12-06 04:21:00,
2013-12-05 21:26:00,-12.5,-18.4,30.73,ENE,73,0.0,0.0,74,0.00,,---,0.00,VWS V13.00,2013-12-06 04:26:00,
2013-12-05 21:31:00,-12.7,-18.6,30.73,ENE,72,0.0,0.0,74,0.00,,---,0.00,VWS V13.00,2013-12-06 04:31:00,
2013-12-05 21:36:00,-12.8,-18.7,30.73,ENE,73,0.0,0.0,74,0.00,,---,0.00,VWS V13.00,2013-12-06 04:36:00,
2013-12-05 21:41:00,-13.0,-18.9,30.73,ENE,73,0.0,0.0,74,0.00,,---,0.00,VWS V13.00,2013-12-06 04:41:00,
2013-12-05 21:46:00,-13.1,-19.0,30.73,ENE,73,0.0,1.0,74,0.00,,---,0.00,VWS V13.00,2013-12-06 04:46:00,
2013-12-05 21:51:00,-13.3,-19.2,30.73,ENE,73,0.0,0.0,74,0.00,,---,0.00,VWS V13.00,2013-12-06 04:51:00,
2013-12-05 21:56:00,-13.3,-19.2,30.73,ENE,72,0.0,0.0,74,0.00,,---,0.00,VWS V13.00,2013-12-06 04:56:00,
2013-12-05 22:01:00,-13.4,-19.3,30.73,ENE,72,0.0,0.0,74,0.00,,---,0.00,VWS V13.00,2013-12-06 05:01:00,
2013-12-05 22:02:00,-13.4,-19.3,30.73,ENE,72,0.0,0.0,74,0.00,,---,0.00,VWS V13.00,2013-12-06 05:02:00,
2013-12-05 22:07:00,-13.5,-19.4,30.71,ENE,73,0.0,0.0,74,0.00,,---,0.00,VWS V13.00,2013-12-06 05:07:00,
2013-12-05 22:12:00,-13.5,-19.4,30.71,ENE,73,0.0,0.0,74,0.00,,---,0.00,VWS V13.00,2013-12-06 05:12:00,
2013-12-05 22:17:00,-13.5,-19.4,30.71,ENE,73,0.0,0.0,74,0.00,,---,0.00,VWS V13.00,2013-12-06 05:17:00,
2013-12-05 22:22:00,-13.5,-19.4,30.71,ENE,72,0.0,0.0,74,0.00,,---,0.00,VWS V13.00,2013-12-06 05:22:00,
2013-12-05 22:27:00,-13.5,-19.4,30.71,ENE,73,0.0,0.0,74,0.00,,---,0.00,VWS V13.00,2013-12-06 05:27:00,
2013-12-05 22:32:00,-13.6,-19.5,30.71,ENE,72,0.0,0.0,74,0.00,,---,0.00,VWS V13.00,2013-12-06 05:32:00,
2013-12-05 22:37:00,-13.6,-19.5,30.71,ENE,73,0.0,0.0,74,0.00,,---,0.00,VWS V13.00,2013-12-06 05:37:00,
2013-12-05 22:42:00,-13.7,-19.6,30.72,ENE,73,0.0,0.0,74,0.00,,---,0.00,VWS V13.00,2013-12-06 05:42:00,
2013-12-05 22:47:00,-13.8,-19.7,30.72,ENE,73,0.0,0.0,74,0.00,,---,0.00,VWS V13.00,2013-12-06 05:47:00,
2013-12-05 22:52:00,-14.0,-19.9,30.72,ENE,72,0.0,0.0,74,0.00,,---,0.00,VWS V13.00,2013-12-06 05:52:00,
2013-12-05 22:57:00,-14.1,-20.0,30.72,ENE,73,0.0,0.0,74,0.00,,---,0.00,VWS V13.00,2013-12-06 05:57:00,
2013-12-05 23:02:00,-14.2,-20.1,30.72,ENE,72,0.0,0.0,74,0.00,,---,0.00,VWS V13.00,2013-12-06 06:02:00,
2013-12-05 23:07:00,-14.3,-20.2,30.73,ENE,72,0.0,0.0,74,0.00,,---,0.00,VWS V13.00,2013-12-06 06:07:00,
2013-12-05 23:12:00,-14.4,-20.3,30.73,ENE,73,0.0,0.0,74,0.00,,---,0.00,VWS V13.00,2013-12-06 06:12:00,
2013-12-05 23:17:00,-14.5,-20.4,30.73,ENE,73,0.0,0.0,74,0.00,,---,0.00,VWS V13.00,2013-12-06 06:17:00,
2013-12-05 23:22:00,-14.4,-20.3,30.75,ENE,73,0.0,0.0,74,0.00,,---,0.00,VWS V13.00,2013-12-06 06:22:00,
2013-12-05 23:27:00,-14.5,-20.4,30.75,ENE,72,0.0,0.0,74,0.00,,---,0.00,VWS V13.00,2013-12-06 06:27:00,
2013-12-05 23:32:00,-14.5,-20.4,30.75,ENE,73,0.0,0.0,74,0.00,,---,0.00,VWS V13.00,2013-12-06 06:32:00,
2013-12-05 23:37:00,-14.5,-20.4,30.75,ENE,73,0.0,0.0,74,0.00,,---,0.00,VWS V13.00,2013-12-06 06:37:00,
2013-12-05 23:42:00,-14.5,-20.4,30.75,ENE,72,0.0,0.0,74,0.00,,---,0.00,VWS V13.00,2013-12-06 06:42:00,
2013-12-05 23:47:00,-14.5,-20.4,30.75,ENE,72,0.0,0.0,74,0.00,,---,0.00,VWS V13.00,2013-12-06 06:47:00,
2013-12-05 23:52:00,-14.6,-20.5,30.75,ENE,73,0.0,0.0,74,0.00,,---,0.00,VWS V13.00,2013-12-06 06:52:00,
2013-12-05 23:57:00,-14.7,-20.6,30.75,ENE,73,0.0,0.0,74,0.00,,---,0.00,VWS V13.00,2013-12-06 06:57:00,